Weather History for Muncie, IN

Change the Weather History Date:

Monday, December 5, 2011

  Actual Average Record
Temperature  
Mean Temperature 38 °F 34 °F  
Max Temperature 42 °F 41 °F 66 °F (2001)
Min Temperature 33 °F 27 °F 3 °F (1991)
Degree Days  
Heating Degree Days 27 31  
Month to date heating degree days 129 151  
Since 1 July heating degree days 1183 1286  
Cooling Degree Days 0 0  
Month to date cooling degree days 0 0  
Year to date cooling degree days 1068 956  
Moisture  
Dew Point 36 °F    
Average Humidity 88    
Maximum Humidity 93    
Minimum Humidity 82    
Precipitation  
Precipitation 0.76 in 0.10 in 0.76 in (2011)
Month to date precipitation 1.42 0.50  
Year to date precipitation 45.44 37.74  
Sea Level Pressure  
Sea Level Pressure 30.16 in    
Wind  
Wind Speed 12 mph (NNE)    
Max Wind Speed 23 mph    
Max Gust Speed 29 mph    
Visibility 6 miles    
Events Rain , Snow    
T = Trace of Precipitation, MM = Missing Value Source: NWS Daily Summary

Daily Weather History Graph

Daily Weather History Graph

Search for Another Location

Airport:

Trip Planner

Search our weather history database for the weather conditions in past years. The results will help you decide how hot, cold, wet, or windy it might be!

Date:

Astronomy

Dec. 05, 2011 Rise Set
Actual Time 7:48 AM EST 5:15 PM EST
Civil Twilight 7:18 AM EST 5:45 PM EST
Nautical Twilight 6:44 AM EST 6:19 PM EST
Astronomical Twilight 6:11 AM EST 6:52 PM EST
Moon 2:13 PM EST (12/5) 3:09 AM EST (12/5)
Length of Visible Light 10h 27m
Length of Day
9h 27m
Waxing Gibbous, 79% of the Moon is Illuminated
Dec 5
Waxing Gibbous
Dec 10
Full
Dec 17
Last Quarter
Dec 24
New
Jan 1
First Quarter

Hourly Weather History & Observations

Time (EST) Temp. Windchill Dew Point Humidity Pressure Visibility Wind Dir Wind Speed Gust Speed Precip Events Conditions
12:00 AM 41.0 °F 36.4 °F 39.2 °F 93% 30.19 in 9.0 mi NNW 6.9 mph - N/A   Overcast
12:34 AM 41.0 °F 37.1 °F 39.2 °F 93% 30.19 in 2.5 mi North 5.8 mph - 0.00 in Rain Light Rain
12:48 AM 41.0 °F 36.4 °F 39.2 °F 93% 30.18 in 3.0 mi NNE 6.9 mph - 0.01 in Rain Light Rain
12:53 AM 41.0 °F 36.4 °F 39.0 °F 93% 30.18 in 3.0 mi NNE 6.9 mph - 0.01 in Rain Light Rain
1:10 AM 41.0 °F 36.4 °F 39.2 °F 93% 30.17 in 8.0 mi North 6.9 mph - 0.00 in Rain Light Rain
1:29 AM 41.0 °F 38.0 °F 39.2 °F 93% 30.16 in 6.0 mi NNE 4.6 mph - 0.01 in Rain Light Rain
1:53 AM 41.0 °F 36.4 °F 39.0 °F 93% 30.17 in 6.0 mi North 6.9 mph - 0.02 in Rain Light Rain
2:53 AM 41.0 °F 36.4 °F 39.0 °F 93% 30.18 in 6.0 mi North 6.9 mph - 0.06 in Rain Light Rain
3:51 AM 41.0 °F 37.1 °F 37.4 °F 87% 30.16 in 5.0 mi NNE 5.8 mph - 0.04 in Rain Light Rain
3:53 AM 41.0 °F 37.1 °F 37.9 °F 89% 30.16 in 5.0 mi NNE 5.8 mph - 0.05 in Rain Light Rain
4:00 AM 41.0 °F 36.4 °F 39.2 °F 93% 30.16 in 5.0 mi NE 6.9 mph - 0.00 in Rain Light Rain
4:53 AM 39.9 °F 35.8 °F 37.9 °F 93% 30.17 in 4.0 mi NNE 5.8 mph - 0.05 in Rain Light Rain
5:53 AM 41.0 °F 37.1 °F 37.9 °F 89% 30.17 in 5.0 mi NNE 5.8 mph - 0.05 in Rain Light Rain
6:53 AM 41.0 °F 36.4 °F 37.9 °F 89% 30.21 in 4.0 mi North 6.9 mph - 0.07 in Rain Rain
7:39 AM 39.2 °F 33.0 °F 37.4 °F 93% 30.20 in 7.0 mi NNE 9.2 mph - 0.05 in Rain Light Rain
7:53 AM 39.9 °F 33.9 °F 37.0 °F 89% 30.20 in 7.0 mi NNE 9.2 mph - 0.06 in Rain Light Rain
8:39 AM 39.2 °F 33.0 °F 37.4 °F 93% 30.15 in 6.0 mi ENE 9.2 mph - 0.01 in Rain Light Rain
8:53 AM 39.9 °F 35.1 °F 37.0 °F 89% 30.16 in 7.0 mi East 6.9 mph - 0.01 in Rain Light Rain
9:53 AM 39.9 °F 33.9 °F 37.9 °F 93% 30.18 in 5.0 mi North 9.2 mph - 0.01 in Rain Light Rain
11:53 AM 39.9 °F 32.1 °F 37.0 °F 89% 30.14 in 6.0 mi NNE 13.8 mph - 0.00 in   Overcast
12:29 PM 39.2 °F 33.0 °F 37.4 °F 93% 30.13 in 2.5 mi NNE 9.2 mph - N/A   Overcast
12:53 PM 39.9 °F 32.5 °F 37.9 °F 93% 30.12 in 1.8 mi NNE 12.7 mph - 0.02 in Rain Light Rain
1:10 PM 39.2 °F 31.6 °F 37.4 °F 93% 30.11 in 2.0 mi NNE 12.7 mph - 0.02 in Rain Light Rain
1:37 PM 39.2 °F 32.0 °F 37.4 °F 93% 30.10 in 4.0 mi NNE 11.5 mph - 0.04 in Rain Light Rain
1:53 PM 39.9 °F 32.1 °F 37.9 °F 93% 30.11 in 5.0 mi NNE 13.8 mph - 0.05 in Rain Light Rain
2:53 PM 39.9 °F 32.1 °F 37.0 °F 89% 30.10 in 5.0 mi NNE 13.8 mph - 0.07 in Rain Rain
3:53 PM 39.9 °F 31.4 °F 37.0 °F 89% 30.10 in 6.0 mi NNE 16.1 mph - 0.06 in Rain Light Rain
4:53 PM 39.9 °F 32.9 °F 37.0 °F 89% 30.11 in 8.0 mi NE 11.5 mph - 0.06 in Rain Light Rain
5:53 PM 39.0 °F 30.3 °F 36.0 °F 89% 30.13 in 7.0 mi NE 16.1 mph 21.9 mph 0.04 in Rain Light Rain
6:53 PM 37.9 °F 27.9 °F 35.1 °F 89% 30.14 in 10.0 mi NNE 19.6 mph 25.3 mph 0.04 in Rain Light Rain
7:09 PM 37.4 °F 27.2 °F 33.8 °F 87% 30.14 in 10.0 mi NNE 19.6 mph 25.3 mph 0.01 in Rain Light Rain
7:53 PM 35.1 °F 25.2 °F 30.9 °F 85% 30.17 in 10.0 mi NNE 16.1 mph 25.3 mph 0.02 in Rain Light Rain
8:37 PM 33.8 °F 23.2 °F 30.2 °F 87% 30.19 in 2.5 mi NNE 17.3 mph - 0.00 in Snow Light Snow
8:53 PM 33.1 °F 22.6 °F 30.0 °F 89% 30.20 in 2.0 mi NNE 16.1 mph 23.0 mph 0.01 in Snow Light Snow
9:24 PM 33.8 °F 24.8 °F 30.2 °F 87% 30.17 in 4.0 mi NNE 12.7 mph - 0.00 in Snow Light Snow
10:53 PM 33.1 °F 23.4 °F 30.0 °F 89% 30.16 in 10.0 mi ENE 13.8 mph - N/A   Overcast
11:53 PM 33.1 °F 23.0 °F 30.0 °F 89% 30.17 in 10.0 mi NNE 15.0 mph - N/A   Overcast